Theta_e
295 295 294 294 294 294 294 295 295 295 294 294 293 292 291 290 290 289 288 287 287 286 285 284 284 283 282 282 281 281 280 280 278 279 279 279 279 279 280 281 280 280 280
296 295 294 293 294 294 294 294 294 293 293 293 293 291 290 290 289 288 287 287 286 285 285 283 283 282 281 281 280 280 279 279 278 277 277 277 277 278 278 278 278 278 278
294 294 294 294 293 293 293 293 292 291 291 291 291 290 290 289 287 287 287 286 286 286 285 284 283 281 281 280 279 279 278 277 277 276 276 276 276 277 277 277 278 278 277
292 293 292 293 293 293 292 292 291 291 290 290 290 290 290 289 287 286 285 285 285 284 284 284 283 282 281 280 279 278 277 276 276 275 275 275 276 277 278 278 277 277 277
290 291 291 292 292 293 292 292 291 290 289 289 289 288 288 287 287 285 284 284 283 282 282 283 282 282 281 281 279 278 277 276 276 275 276 276 277 278 277 277 277 276 276
289 289 290 291 291 291 291 290 290 289 288 288 287 287 286 286 285 285 285 283 282 281 281 280 281 280 280 279 278 278 278 277 276 276 276 277 277 277 277 276 276 276 277
289 289 289 288 289 290 291 290 289 288 287 287 286 285 285 285 284 284 283 283 281 281 280 280 279 279 278 278 279 279 279 279 278 279 278 278 277 277 276 276 277 277 278
288 288 288 287 287 287 289 288 288 287 287 286 285 284 284 283 284 284 283 282 281 280 280 280 279 278 277 277 278 279 279 279 280 279 278 277 277 277 277 278 277 276 274
287 288 287 286 286 286 286 287 286 285 285 284 284 283 283 282 283 284 284 279 279 278 278 278 278 277 278 277 277 277 277 277 277 277 278 278 279 278 278 276 274 273 272
286 286 286 285 285 285 285 285 285 284 284 283 283 282 282 282 282 284 284 278 278 277 277 277 277 278 278 278 276 276 276 276 276 276 277 276 276 275 274 273 272 272 271
283 281 281 283 284 285 286 284 283 283 282 282 281 281 281 281 281 284 285 279 278 278 277 277 277 278 278 279 279 277 277 276 277 276 276 275 274 273 273 273 272 271 271
278 278 279 282 285 284 284 284 282 281 280 280 279 278 279 279 280 284 285 279 279 278 277 277 277 278 278 279 280 278 278 278 276 275 274 273 272 272 272 271 271 271 271
275 276 277 276 278 283 282 281 280 280 279 278 277 277 277 278 279 283 285 282 280 278 277 277 277 279 279 280 279 278 277 276 275 274 271 271 271 270 270 270 270 270 269
272 272 273 274 276 280 281 281 280 280 279 279 278 278 277 277 278 281 284 284 281 278 278 278 278 279 279 278 277 276 274 273 272 271 270 270 270 270 269 269 269 269 269
269 270 270 272 273 276 280 281 280 280 281 280 280 279 278 277 277 279 283 283 280 277 277 277 277 276 274 274 273 272 271 270 270 269 269 269 268 268 268 268 268 268 268
267 267 269 270 271 273 276 280 280 281 281 281 282 279 278 278 278 279 282 283 280 278 276 276 274 273 272 270 270 269 269 269 269 268 268 268 267 267 267 267 267 267 267
265 265 266 267 269 271 274 279 279 279 281 282 282 282 280 278 279 279 281 283 280 278 275 273 272 271 271 270 269 269 268 268 268 268 267 267 267 266 266 266 266 266 267
264 264 265 266 267 269 272 275 279 279 278 280 282 282 282 280 280 280 281 282 282 277 273 272 271 270 269 269 268 268 267 267 267 267 267 267 267 265 264 265 265 266 267
264 265 266 267 268 269 271 274 278 278 278 279 279 280 282 281 280 280 281 281 280 272 271 271 270 269 268 268 268 267 267 267 267 267 267 267 267 265 264 264 265 266 266
264 265 265 266 267 269 270 273 277 276 276 277 278 279 280 280 279 280 281 280 273 271 269 268 268 269 269 267 267 267 266 266 266 267 267 267 266 265 264 264 264 265 266
264 264 265 266 268 270 271 274 275 275 276 276 277 278 278 278 279 280 279 271 269 269 269 269 269 268 267 267 266 266 266 266 266 267 266 266 266 265 265 264 264 264 267
265 267 268 269 270 271 274 274 274 274 275 276 277 277 279 277 272 269 268 269 269 269 269 269 268 267 267 267 266 266 266 266 266 266 266 266 266 266 266 264 264 266 266
267 269 272 272 272 273 273 273 274 274 275 275 276 273 269 268 266 266 267 268 269 269 268 268 267 266 266 266 266 266 266 267 266 266 266 267 267 267 266 265 265 265 265
267 268 270 271 271 271 271 270 271 272 272 268 267 266 265 265 265 266 267 267 268 267 266 266 266 266 265 265 266 266 266 266 266 267 267 267 267 268 267 265 266 265 264
265 266 266 267 267 268 268 268 268 266 266 265 264 264 264 264 265 265 266 267 266 265 265 265 265 265 265 265 265 265 266 266 267 267 267 267 268 268 267 267 266 264 263
264 264 265 265 265 266 266 265 265 264 264 263 263 263 263 264 265 265 265 264 264 263 264 264 264 264 264 264 265 265 266 267 267 267 267 268 268 268 268 267 265 264 263
Wind_Speed
26 28 32 35 38 39 41 43 45 44 43 44 44 47 51 52 51 49 47 44 41 38 36 33 29 25 25 23 21 19 19 19 10 8 11 14 19 20 25 25 25 25 26
28 29 32 32 33 37 41 45 46 46 45 45 45 45 48 52 54 53 52 49 47 44 41 36 33 29 27 24 23 23 22 22 17 10 9 12 14 16 19 19 19 21 23
37 28 31 32 34 39 42 43 43 42 43 44 44 46 48 50 51 54 53 50 49 48 46 42 38 34 30 28 26 25 23 21 21 17 12 14 15 16 16 16 16 16 18
36 34 29 33 36 39 38 37 40 43 45 46 48 49 50 51 51 51 50 48 47 47 46 44 41 38 36 33 30 28 25 23 21 19 15 16 13 12 11 14 16 17 20
33 34 33 31 33 36 37 37 39 41 43 44 44 47 46 48 50 50 50 49 47 43 46 44 42 38 35 31 31 30 27 24 21 16 13 8 8 6 7 13 17 21 23
30 29 34 36 30 32 34 36 37 39 39 40 43 41 40 45 46 50 51 47 46 45 45 43 40 37 33 30 29 29 28 28 25 18 11 8 9 8 10 14 17 18 7
26 26 26 31 29 29 32 31 34 34 35 38 37 37 41 44 39 43 44 46 45 44 45 45 41 39 36 32 26 23 23 22 20 14 13 13 10 12 14 14 15 18 20
30 27 27 32 33 30 28 31 31 30 33 33 34 37 36 41 38 43 45 44 42 42 45 48 45 42 40 35 31 27 27 28 24 19 16 15 13 12 12 14 19 22 26
27 30 32 31 33 32 27 29 28 26 27 29 32 33 36 34 35 42 42 33 33 34 37 39 40 38 36 32 33 33 29 27 19 15 11 12 14 14 14 16 20 15 10
31 33 35 35 33 30 28 28 28 27 26 27 27 30 34 33 32 40 42 32 31 29 30 33 37 37 31 29 29 30 24 24 20 14 12 13 12 15 17 14 14 15 10
32 37 37 35 33 32 28 26 28 28 24 24 22 24 29 33 33 40 43 32 32 30 30 29 32 27 28 28 27 27 26 18 14 10 11 14 15 14 14 13 12 14 14
34 36 34 33 33 30 30 25 23 24 24 22 21 20 25 28 31 37 43 29 27 31 32 31 32 30 28 27 26 19 16 14 14 12 13 13 11 12 13 14 15 17 21
34 35 35 36 35 31 25 23 18 20 17 16 19 18 18 26 30 32 41 35 31 26 27 28 29 30 26 26 23 21 19 20 16 14 12 10 8 10 13 18 20 22 26
34 35 34 32 33 30 25 24 23 19 19 18 17 19 19 22 26 30 37 37 33 29 27 27 29 32 29 29 23 18 19 19 17 12 9 7 8 10 14 17 18 21 24
34 34 33 31 30 30 29 26 26 27 26 21 24 21 20 22 31 35 34 31 35 32 33 31 29 26 25 26 25 25 20 16 11 9 7 5 7 9 13 15 17 19 20
34 32 28 27 28 28 28 28 28 31 24 30 28 28 28 27 26 34 36 32 35 38 35 29 25 25 23 21 18 16 14 12 9 7 4 5 6 9 14 18 18 18 21
33 33 31 29 27 25 25 23 12 19 28 30 29 30 28 27 29 35 39 38 36 38 29 28 23 23 22 23 22 20 15 12 9 5 4 4 6 10 15 16 18 19 21
33 34 32 30 29 28 27 27 23 15 8 17 30 30 30 26 29 33 38 38 35 35 26 28 24 24 23 23 24 21 17 13 8 5 4 6 10 12 16 18 19 19 23
33 31 30 29 29 31 30 29 23 19 15 15 15 23 26 26 26 33 40 37 31 27 27 25 26 26 27 27 25 21 17 12 8 4 4 7 12 14 19 21 21 22 26
32 33 35 32 29 28 27 27 19 16 15 15 15 17 20 24 22 27 34 28 24 25 25 26 29 30 28 26 22 18 15 12 7 3 4 8 12 15 19 20 22 23 24
31 31 32 29 27 25 24 21 16 15 15 15 17 20 23 25 19 22 20 24 26 28 29 31 31 29 25 23 20 17 13 10 7 3 4 8 13 17 20 23 24 23 27
29 29 28 25 23 22 22 18 15 14 14 13 13 19 28 20 19 23 23 26 29 29 29 30 27 24 22 19 16 13 9 6 4 2 6 10 13 17 21 23 24 22 27
24 23 20 16 16 12 10 11 11 12 11 13 12 15 21 23 23 25 29 27 26 24 23 23 22 19 16 13 12 9 7 5 3 5 8 11 14 19 22 24 22 24 26
19 16 12 9 8 9 9 10 12 13 15 18 19 19 20 22 26 29 30 29 27 23 21 20 18 16 14 11 8 7 6 5 6 8 9 12 16 20 24 22 23 26 29
18 16 16 15 14 13 13 13 15 17 17 18 19 21 23 26 31 30 29 25 23 20 18 16 13 11 9 8 9 9 7 7 8 9 10 13 18 22 24 26 27 27 29
19 17 16 16 16 16 15 16 16 17 18 18 20 21 24 28 30 29 25 22 18 15 13 10 7 6 6 8 9 9 7 7 9 10 12 17 20 22 25 25 26 28 28
Wind_Direction
274 259 246 241 238 232 230 231 231 229 225 223 222 220 218 217 217 214 215 214 213 215 215 215 214 212 209 208 208 209 210 205 198 240 257 282 296 311 320 327 332 335 335
308 287 269 255 246 240 238 237 235 233 229 225 221 219 219 218 219 216 213 212 210 213 214 213 214 210 210 210 209 211 213 216 215 206 243 255 272 288 302 309 313 323 327
345 317 290 270 257 250 246 241 236 234 233 227 222 219 219 219 216 217 214 213 211 214 214 213 212 208 209 206 210 214 218 218 222 218 228 251 268 286 302 304 314 309 308
340 337 309 283 271 261 253 244 240 235 230 229 228 224 219 220 218 217 212 211 212 213 214 216 214 211 211 208 210 216 217 219 222 223 234 243 259 289 304 316 311 319 308
337 334 325 307 287 274 263 254 245 238 234 230 222 222 219 217 214 212 210 209 208 207 213 215 216 215 215 214 212 213 216 221 221 218 221 236 263 299 316 313 315 317 314
332 327 329 329 310 280 260 249 239 235 233 229 225 219 213 215 213 213 212 204 204 203 204 210 213 213 210 210 211 215 220 218 219 216 228 235 267 288 307 313 311 322 339
325 326 331 328 325 307 287 263 247 234 230 226 224 220 218 219 211 208 206 204 201 200 200 201 204 209 205 202 202 205 208 216 226 232 229 246 257 287 298 298 301 303 296
322 325 331 335 332 320 304 270 250 239 229 222 222 221 219 221 211 206 202 203 201 201 201 202 200 199 203 200 197 206 214 216 218 227 239 259 278 300 291 290 294 295 297
320 321 324 330 328 324 302 280 263 244 232 224 222 218 217 221 210 203 197 198 194 192 197 201 200 200 200 194 200 206 211 220 223 225 237 260 266 275 277 286 293 300 303
321 322 321 319 316 317 308 288 272 253 241 230 224 221 217 215 207 204 197 189 187 183 187 192 200 204 196 191 197 202 208 215 215 213 229 251 255 273 290 287 291 275 285
313 314 313 308 301 307 310 295 274 253 234 232 224 222 219 213 207 206 198 190 187 180 180 181 188 187 184 192 202 208 216 221 216 221 234 254 274 287 298 305 298 284 267
311 306 306 308 306 300 297 288 267 249 230 211 206 206 213 209 210 205 201 194 191 181 181 185 188 185 186 191 200 209 212 218 214 220 245 268 282 297 308 307 305 287 272
303 302 303 303 300 294 285 269 238 227 227 214 193 195 196 200 206 206 201 194 195 180 180 182 183 182 185 191 200 200 201 213 216 227 234 251 275 297 304 311 311 309 295
296 295 297 297 296 295 274 261 243 218 212 220 219 204 192 191 198 199 199 193 187 183 178 182 180 180 179 191 181 187 205 211 209 210 226 252 288 303 311 318 303 303 299
293 291 291 291 290 290 278 254 246 237 225 219 219 216 196 198 205 197 196 188 180 171 162 166 174 170 167 178 187 196 193 195 196 210 226 269 300 306 304 312 302 296 289
288 288 287 287 288 287 286 272 255 250 243 237 236 218 213 215 198 200 199 194 181 168 161 170 173 173 169 164 174 182 189 186 185 201 231 271 300 306 303 309 301 290 289
278 282 284 284 284 283 280 274 260 260 247 242 235 234 224 209 203 199 198 189 177 173 170 171 177 174 168 168 174 179 174 175 187 196 232 285 306 315 307 299 296 297 291
276 276 275 276 275 275 272 272 254 243 237 235 232 232 227 215 209 203 195 187 181 177 173 169 172 169 170 167 171 174 170 170 181 199 256 306 321 317 303 297 296 293 297
279 276 273 270 269 268 270 277 244 237 231 234 212 225 215 209 212 205 192 191 183 165 165 166 167 171 173 179 177 172 169 169 175 205 286 317 325 315 301 294 293 294 292
281 274 269 266 263 259 258 263 230 223 221 218 205 209 188 193 203 200 197 187 164 160 160 161 169 178 180 178 174 171 169 172 173 195 286 311 313 305 300 294 293 296 294
278 275 267 263 259 255 250 241 219 212 214 209 207 197 185 184 196 194 176 147 148 160 168 173 169 172 177 176 173 175 177 175 179 214 286 301 305 302 309 305 292 290 302
284 277 266 253 250 244 239 216 209 204 203 200 194 187 191 182 145 129 130 142 160 171 173 166 165 169 178 178 175 180 181 192 204 268 301 300 305 310 310 304 295 292 305
300 296 292 245 238 224 194 190 191 195 187 175 159 131 119 125 128 134 145 148 149 149 153 160 163 165 172 177 180 188 197 219 255 284 298 309 307 308 310 301 291 299 305
327 342 7 42 76 89 93 97 107 117 103 103 103 109 114 119 128 138 137 137 138 145 155 160 164 168 178 185 192 209 227 243 268 300 309 304 303 312 311 294 293 298 303
0 15 28 35 46 57 69 76 76 87 93 101 102 106 117 124 129 130 131 136 145 153 157 164 170 176 184 200 218 229 242 257 283 304 305 306 311 310 303 303 302 306 308
15 26 36 45 49 54 60 65 67 73 82 92 102 109 120 125 130 131 136 143 148 154 157 161 170 187 204 220 230 229 248 273 289 302 316 313 306 299 310 304 305 314 311